User: anonymous   Login
Location: Benque
(43.2594°N, 0.9178°E)
Time: 12:02:50
(UTC+00:00)
Language:

Cosmos 1959 Rocket - Orbit

View from above orbital plane
View from above orbital plane
View from above satellite
View from above satellite

Ground track
Ground track

The orbit data is extracted from the following two-line orbital elements,

1 19325U 88062B   20098.77823892 +.00000082 +00000-0 +66624-4 0  9997
2 19325 082.9522 340.6088 0032567 241.1061 183.0350 13.77616319556478
Epoch (UTC): 07 April 2020 18:40:39
Eccentricity: 0.0032567
inclination: 82.9522°
perigee height: 948 km
apogee height: 996 km
right ascension of ascending node: 340.6088°
argument of perigee: 241.1061°
revolutions per day: 13.77616319
mean anomaly at epoch: 183.0350°
orbit number at epoch: 55647

The dashed part of the orbit path shows where the satellite is in the earth's shadow,  

DLR